Content
SEND FEEDBACK

Daily
Averages
Monthly
Summary
United States of America

MERIZO, GUAM


Home > North America > United States > Guam
Elevation: 10 feet     Latitude: 13 14N     Longitude: 144 39E

WEATHER
 
SELECT A DAY
Number of Records: 351,545;   Date Range: 1/1/95 - 10/19/14
 
SHARE

PRINT THIS DATA

[ ← Previous Day ]
WEATHER ALMANAC - SEPTEMBER 13, 2013
[ Next Day → ]
[ °C ]   °F
Weather ElementAverageHighLow
Temperature81.2 °F86 °F (1:38 pm)77 °F (11:21 am)
Dewpoint76.2 °F78.8 °F (12:31 pm)71.6 °F (10:08 am)
Humidity85 %94 % (11:00 am)74 % (9:48 am)
Barometer29.79 in29.92 in (9:53 am)29.65 in (3:58 pm)
Wind Speed8.9 mph20.7 mph (10:14 am)
Wind Gust27.6 mph (10:14 am)
Weather ElementAverage
Visibility9 mi
Wind DirectionSSW (218.7 °)

Weather ElementTotal
Precipitation0.30 in
Cooling Degree Days16.5 (Base 65)
Growing Degree Days31.5 (Base 50)
Averaged from 46 records on September 13, 2013
WEATHER CONDITIONS BREAKOUT
WIND DIRECTION BREAKOUT
WEATHER BY HOUR - SEPTEMBER 13, 2013
[ °C ]   °F
Local TimeTemperatureDewpointHumidityBarometerVisibilityWind DirectionWind SpeedGust SpeedPrecipitationEventsConditions
1:58 AM78.3 °F75.7 °F92 %29.71 in10.0 miWSW (250°)8.1 mphClear
2:58 AM78.4 °F75.9 °F92 %29.69 in10.0 miWSW (240°)11.5 mphClear
3:58 AM78.3 °F75.7 °F92 %29.70 in10.0 miWSW (240°)10.4 mphClear
4:58 AM78.4 °F75.2 °F90 %29.70 in10.0 miWSW (240°)10.4 mphClear
5:58 AM78.6 °F75.4 °F90 %29.73 in10.0 miSW (230°)9.2 mphClear
6:58 AM78.1 °F75.2 °F91 %29.75 in10.0 miSW (230°)9.2 mphClear
7:58 AM80.2 °F76.1 °F87 %29.77 in10.0 miSW (220°)10.4 mphClear
8:58 AM83.8 °F77.4 °F81 %29.77 in10.0 miSSW (210°)10.4 mphClear
9:48 AM84.2 °F75.2 °F74 %29.91 in10.0 miSSW (210°)9.2 mphMostly Cloudy
9:53 AM82.4 °F75.2 °F79 %29.92 in10.0 miWest (270°)9.2 mphRainLight Rain
9:58 AM81.3 °F75.4 °F82 %29.80 in10.0 miWest (260°)18.4 mph23.0 mph0.03 inRainHeavy Rain
10:08 AM78.8 °F71.6 °F78 %29.90 in2.5 miWest (260°)5.8 mph24.2 mphRainLight Rain
10:13 AM78.8 °F73.4 °F83 %29.91 in2.5 miSouth (190°)17.3 mph23.0 mphRainLight Rain
10:14 AM78.8 °F73.4 °F83 %29.91 in1.2 miSSW (200°)20.7 mph27.6 mphHaze
10:19 AM78.8 °F75.2 °F89 %29.91 in1.0 miSW (220°)9.2 mph27.6 mphHaze
10:24 AM78.8 °F75.2 °F89 %29.90 in3.0 miWSW (240°)10.4 mph27.6 mphHaze
10:29 AM80.6 °F75.2 °F84 %29.90 in10.0 miWSW (240°)8.1 mphScattered Clouds
10:58 AM81.1 °F76.8 °F87 %29.77 in10.0 miNNW (330°)10.4 mph0.21 inScattered Clouds
11:00 AM78.8 °F77.0 °F94 %29.89 in10.0 miNNW (330°)10.4 mphRainLight Rain
11:05 AM78.8 °F75.2 °F89 %29.89 in10.0 miNW (310°)9.2 mphRainLight Rain
11:21 AM77.0 °F75.2 °F94 %29.88 in5.0 miWest (260°)8.1 mphMostly Cloudy
11:26 AM78.8 °F75.2 °F89 %29.87 in9.0 miWest (260°)4.6 mphMostly Cloudy
11:58 AM81.5 °F76.6 °F85 %29.73 in10.0 miSSE (160°)8.1 mph0.06 inMostly Cloudy
12:26 PM82.4 °F77.0 °F84 %29.84 in10.0 miSouth (190°)5.8 mphLight Drizzle
12:31 PM82.4 °F78.8 °F89 %29.84 in10.0 miNNW (340°)4.6 mphLight Drizzle
12:35 PM82.4 °F78.8 °F89 %29.84 in10.0 miVariable3.5 mphOvercast
12:50 PM84.2 °F77.0 °F79 %29.84 in10.0 miSW (230°)6.9 mphMostly Cloudy
12:58 PM84.2 °F77.9 °F81 %29.70 in10.0 miSSW (210°)10.4 mph0.00 inMostly Cloudy
1:03 PM84.2 °F78.8 °F84 %29.83 in10.0 miSSW (210°)8.1 mphMostly Cloudy
1:08 PM84.2 °F77.0 °F79 %29.82 in10.0 miSSW (210°)5.8 mphMostly Cloudy
1:38 PM86.0 °F77.0 °F74 %29.80 in10.0 miSouth (190°)9.2 mphMostly Cloudy
1:43 PM84.2 °F77.0 °F79 %29.80 in10.0 miSouth (190°)10.4 mphMostly Cloudy
1:58 PM85.5 °F77.2 °F76 %29.67 in10.0 miSouth (190°)10.4 mphMostly Cloudy
2:58 PM83.8 °F77.2 °F80 %29.67 in10.0 miSW (220°)8.1 mphScattered Clouds
3:18 PM80.6 °F75.2 °F84 %29.79 in10.0 miVariable5.8 mphMostly Cloudy
3:23 PM82.4 °F77.0 °F84 %29.78 in10.0 miVariable3.5 mphMostly Cloudy
3:43 PM84.2 °F77.0 °F79 %29.78 in10.0 miSSW (200°)9.2 mphMostly Cloudy
3:58 PM84.4 °F77.4 °F79 %29.65 in10.0 miSSW (200°)10.4 mphScattered Clouds
4:58 PM84.4 °F76.8 °F78 %29.67 in10.0 miSW (220°)13.8 mphPartly Cloudy
5:58 PM82.4 °F77.0 °F84 %29.69 in10.0 miSW (220°)9.2 mphScattered Clouds
6:58 PM81.0 °F76.6 °F87 %29.71 in10.0 miWSW (250°)6.9 mphMostly Cloudy
7:58 PM80.1 °F75.9 °F87 %29.72 in10.0 miSSW (200°)5.8 mphScattered Clouds
8:58 PM80.1 °F75.9 °F87 %29.73 in10.0 miSW (230°)6.9 mphScattered Clouds
9:58 PM79.5 °F76.3 °F90 %29.75 in10.0 miWSW (250°)5.8 mphMostly Cloudy
10:58 PM79.3 °F76.3 °F90 %29.73 in10.0 miWSW (250°)5.8 mphMostly Cloudy
11:58 PM79.0 °F76.5 °F92 %29.71 in10.0 miWest (260°)5.8 mphMostly Cloudy
Hourly data recorded from PGUA, located miles away from Merizo, Guam







STORIES FROM OUR PARTNERS